Provincetown, MA

8:05 AM EST on February 24, 2017 (GMT -0500)
Provincetown Municipal

Weather History for KPVC - April, 2013

Change the Weather History Date:

Monday, April 8, 2013

  Actual Average Record
Temperature  
Mean Temperature 48 °F -  
Max Temperature 55 °F 47 °F 57 °F (1952)
Min Temperature 42 °F 36 °F 23 °F (1951)
Degree Days  
Heating Degree Days 16    
Moisture  
Dew Point 40 °F    
Average Humidity 75    
Maximum Humidity 100    
Minimum Humidity 47    
Precipitation  
Precipitation 0.00 in - - ()
Sea Level Pressure  
Sea Level Pressure 30.06 in    
Wind  
Wind Speed 12 mph (SSW)    
Max Wind Speed 17 mph    
Max Gust Speed 23 mph    
Visibility 10 miles    
Events      
Averages and records for this station are not official NWS values.
T = Trace of Precipitation, MM = Missing Value Source: NWS Daily Summary

Daily Weather History Graph

Daily Weather History Graph

Search for Another Location

Airport or City:

Trip Planner

Search our weather history database for the weather conditions in past years. The results will help you decide how hot, cold, wet, or windy it might be!

Date:

Astronomy

Apr. 08, 2013 Rise Set
Actual Time 6:11 AM EDT 7:14 PM EDT
Civil Twilight 5:42 AM EDT 7:43 PM EDT
Nautical Twilight 5:08 AM EDT 8:17 PM EDT
Astronomical Twilight 4:33 AM EDT 8:53 PM EDT
Moon 5:01 AM EDT (4/8) 5:44 PM EDT (4/8)
Length of Visible Light 14h 00m
Length of Day
13h 03m
Waning Crescent, 3% of the Moon is Illuminated
Apr 8
Waning Crescent
Apr 10
New
Apr 18
First Quarter
Apr 25
Full
May 2
Last Quarter

Hourly Weather History & Observations

Time (EDT) Temp. Windchill Dew Point Humidity Pressure Visibility Wind Dir Wind Speed Gust Speed Precip Events Conditions
12:15 AM 44.6 °F 38.4 °F 39.2 °F 81% 30.06 in 10.0 mi SSW 12.7 mph 19.6 mph N/A   Clear
12:35 AM 44.6 °F 38.1 °F 41.0 °F 87% 30.05 in 10.0 mi SSW 13.8 mph 19.6 mph N/A   Clear
12:55 AM 44.6 °F 37.8 °F 41.0 °F 87% 30.05 in 10.0 mi SSW 15.0 mph 20.7 mph N/A   Clear
1:15 AM 44.6 °F 38.1 °F 41.0 °F 87% 30.04 in 10.0 mi SSW 13.8 mph 19.6 mph N/A   Clear
1:35 AM 44.6 °F 38.8 °F 41.0 °F 87% 30.04 in 10.0 mi SSW 11.5 mph 19.6 mph N/A   Clear
1:56 AM 44.6 °F 37.8 °F 42.8 °F 93% 30.03 in 10.0 mi SW 15.0 mph 20.7 mph N/A   Clear
2:15 AM 46.4 °F 39.5 °F 42.8 °F 87% 30.02 in 10.0 mi SW 17.3 mph - N/A   Mostly Cloudy
2:35 AM 46.4 °F 40.1 °F 42.8 °F 87% 30.01 in 10.0 mi SW 15.0 mph - N/A   Overcast
2:55 AM 44.6 °F 37.2 °F 42.8 °F 93% 30.01 in 10.0 mi SW 17.3 mph - N/A   Overcast
3:15 AM 44.6 °F 37.2 °F 42.8 °F 93% 30.00 in 10.0 mi SSW 17.3 mph 23.0 mph N/A   Overcast
3:35 AM 44.6 °F 37.8 °F 42.8 °F 93% 30.00 in 10.0 mi SSW 15.0 mph 20.7 mph N/A   Overcast
3:55 AM 44.6 °F 37.4 °F 42.8 °F 93% 29.99 in 10.0 mi SSW 16.1 mph - N/A   Mostly Cloudy
4:15 AM 44.6 °F 38.1 °F 42.8 °F 93% 29.99 in 10.0 mi SSW 13.8 mph 19.6 mph N/A   Overcast
4:35 AM 44.6 °F 37.8 °F 42.8 °F 93% 29.99 in 10.0 mi SW 15.0 mph - N/A   Mostly Cloudy
4:55 AM 44.6 °F 37.4 °F 42.8 °F 93% 29.98 in 10.0 mi SSW 16.1 mph 21.9 mph N/A   Mostly Cloudy
5:15 AM 44.6 °F 37.8 °F 42.8 °F 93% 29.98 in 10.0 mi SW 15.0 mph 20.7 mph N/A   Mostly Cloudy
5:35 AM 44.6 °F 37.8 °F 42.8 °F 93% 29.98 in 10.0 mi SW 15.0 mph - N/A   Scattered Clouds
5:55 AM 44.6 °F 38.1 °F 42.8 °F 93% 29.99 in 10.0 mi SW 13.8 mph - N/A   Clear
6:15 AM 42.8 °F 36.6 °F 42.8 °F 100% 29.99 in 9.0 mi SW 11.5 mph - N/A   Clear
6:35 AM 42.8 °F 37.5 °F 42.8 °F 100% 30.00 in 8.0 mi SW 9.2 mph - N/A   Clear
6:55 AM 44.6 °F 39.7 °F 42.8 °F 93% 30.01 in 9.0 mi SW 9.2 mph - N/A   Scattered Clouds
7:15 AM 44.6 °F 39.7 °F 42.8 °F 93% 30.01 in 9.0 mi SW 9.2 mph - N/A   Mostly Cloudy
7:35 AM 44.6 °F 40.2 °F 44.6 °F 100% 30.02 in 10.0 mi SW 8.1 mph - N/A   Partly Cloudy
8:15 AM 44.6 °F 40.2 °F 42.8 °F 93% 30.03 in 10.0 mi SW 8.1 mph - N/A   Clear
8:35 AM 46.4 °F 41.9 °F 44.6 °F 93% 30.03 in 10.0 mi SW 9.2 mph - N/A   Clear
8:55 AM 46.4 °F 41.9 °F 44.6 °F 93% 30.04 in 10.0 mi SW 9.2 mph - N/A   Clear
9:15 AM 48.2 °F - 44.6 °F 87% 30.04 in 10.0 mi SW 9.2 mph - N/A   Partly Cloudy
9:35 AM 48.2 °F - 44.6 °F 87% 30.04 in 10.0 mi WSW 10.4 mph - N/A   Clear
9:55 AM 48.2 °F - 44.6 °F 87% 30.04 in 10.0 mi SW 9.2 mph - N/A   Clear
10:15 AM 48.2 °F - 42.8 °F 82% 30.05 in 10.0 mi SW 8.1 mph - N/A   Clear
10:35 AM 51.8 °F - 44.6 °F 76% 30.05 in 10.0 mi SW 9.2 mph - N/A   Clear
10:55 AM 51.8 °F - 44.6 °F 76% 30.06 in 10.0 mi West 9.2 mph - N/A   Clear
11:15 AM 53.6 °F - 42.8 °F 67% 30.07 in 10.0 mi West 10.4 mph - N/A   Clear
11:35 AM 53.6 °F - 41.0 °F 62% 30.07 in 10.0 mi WNW 9.2 mph - N/A   Clear
11:55 AM 51.8 °F - 39.2 °F 62% 30.08 in 10.0 mi WNW 8.1 mph - N/A   Clear
12:15 PM 51.8 °F - 39.2 °F 62% 30.08 in 10.0 mi NW 9.2 mph - N/A   Clear
12:35 PM 53.6 °F - 39.2 °F 58% 30.07 in 10.0 mi NNW 9.2 mph - N/A   Clear
12:55 PM 53.6 °F - 39.2 °F 58% 30.07 in 10.0 mi NNW 8.1 mph - N/A   Clear
1:15 PM 53.6 °F - 39.2 °F 58% 30.07 in 10.0 mi North 8.1 mph - N/A   Clear
1:35 PM 53.6 °F - 39.2 °F 58% 30.07 in 10.0 mi North 8.1 mph - N/A   Clear
1:55 PM 53.6 °F - 39.2 °F 58% 30.07 in 10.0 mi NNW 9.2 mph - N/A   Partly Cloudy
2:15 PM 53.6 °F - 39.2 °F 58% 30.08 in 10.0 mi North 9.2 mph - N/A   Mostly Cloudy
2:35 PM 53.6 °F - 39.2 °F 58% 30.07 in 10.0 mi North 10.4 mph - N/A   Overcast
2:55 PM 53.6 °F - 41.0 °F 62% 30.07 in 10.0 mi NNE 10.4 mph - N/A   Overcast
3:15 PM 53.6 °F - 39.2 °F 58% 30.07 in 10.0 mi NNE 6.9 mph - N/A   Overcast
3:35 PM 55.4 °F - 39.2 °F 54% 30.07 in 10.0 mi NE 10.4 mph - N/A   Overcast
3:55 PM 55.4 °F - 37.4 °F 51% 30.07 in 10.0 mi ENE 8.1 mph - N/A   Overcast
4:15 PM 55.4 °F - 35.6 °F 47% 30.07 in 10.0 mi East 9.2 mph - N/A   Overcast
4:35 PM 55.4 °F - 35.6 °F 47% 30.07 in 10.0 mi East 9.2 mph - N/A   Overcast
4:55 PM 55.4 °F - 35.6 °F 47% 30.07 in 10.0 mi East 10.4 mph - N/A   Overcast
5:15 PM 53.6 °F - 37.4 °F 54% 30.09 in 10.0 mi East 12.7 mph - N/A   Overcast
5:35 PM 53.6 °F - 37.4 °F 54% 30.09 in 10.0 mi ESE 9.2 mph - N/A   Overcast
5:55 PM 53.6 °F - 37.4 °F 54% 30.09 in 10.0 mi SE 8.1 mph - N/A   Overcast
6:15 PM 51.8 °F - 37.4 °F 58% 30.09 in 10.0 mi SE 10.4 mph - N/A   Overcast
6:35 PM 51.8 °F - 37.4 °F 58% 30.10 in 10.0 mi SE 6.9 mph - N/A   Overcast
6:55 PM 50.0 °F - 37.4 °F 62% 30.09 in 10.0 mi SE 6.9 mph - N/A   Overcast
7:15 PM 48.2 °F - 37.4 °F 66% 30.10 in 10.0 mi SE 9.2 mph - N/A   Overcast
7:35 PM 48.2 °F - 35.6 °F 62% 30.11 in 10.0 mi SE 6.9 mph - N/A   Overcast
7:55 PM 46.4 °F 43.5 °F 35.6 °F 66% 30.11 in 10.0 mi SE 5.8 mph - N/A   Overcast
8:15 PM 46.4 °F 42.4 °F 35.6 °F 66% 30.12 in 10.0 mi SSE 8.1 mph - N/A   Overcast
8:35 PM 46.4 °F 43.5 °F 35.6 °F 66% 30.12 in 10.0 mi SE 5.8 mph - N/A   Overcast
8:55 PM 44.6 °F 40.2 °F 35.6 °F 71% 30.12 in 10.0 mi SSE 8.1 mph - N/A   Overcast
9:15 PM 46.4 °F 43.5 °F 35.6 °F 66% 30.13 in 10.0 mi SE 5.8 mph - N/A   Overcast
9:35 PM 46.4 °F 43.5 °F 37.4 °F 71% 30.14 in 10.0 mi SSE 5.8 mph - N/A   Overcast
10:15 PM 44.6 °F 42.2 °F 37.4 °F 76% 30.14 in 10.0 mi SSE 4.6 mph - N/A   Overcast
10:35 PM 44.6 °F 40.7 °F 37.4 °F 76% 30.15 in 10.0 mi South 6.9 mph - N/A   Overcast
10:55 PM 44.6 °F 40.2 °F 37.4 °F 76% 30.14 in 10.0 mi SSE 8.1 mph - N/A   Overcast
11:15 PM 44.6 °F 40.7 °F 37.4 °F 76% 30.13 in 10.0 mi SSE 6.9 mph - N/A   Overcast
11:35 PM 44.6 °F 40.2 °F 37.4 °F 76% 30.13 in 10.0 mi SE 8.1 mph - N/A   Overcast